Location: London
(51.5074°N, 0.1278°W)
Time: 15:06:04
(UTC+01:00)

ISS - Pass Details

Date: 06 April 2018
Orbit: 403 x 406 km, 51.6° (Epoch: 22 April)

Event Time Altitude Azimuth Distance (km) Brightness Sun altitude
Rises 21:10:09 0° 284° (WNW) 2,336 1.6 -13.6°
Reaches altitude 10° 21:12:19 10° 275° (W) 1,473 0.1 -13.9°
Maximum altitude 21:15:23 36° 208° (SSW) 672 -2.8 -14.3°
Enters shadow 21:16:43 24° 160° (SSE) 885 -2.6 -14.5°
